Find OV2-1

NORAD ID: 1641 Int'l Des: 1965-082 Owner: AFSSD Country: US operational
LEOCIRCULAR

Aktuelle Ansicht

3D-Globus wird geladen...

Über OV2-1

Beschreibung wird geladen...

Nächste Überflüge

Passes for default location (London). Set your location on the main map for personalized predictions.

Höhenverlauf

Loading altitude history...

Zweizeiliger Elementsatz

1 1641U 65082C 26151.50750341 .00000351 00000-0 73180-4 0 9995
2 1641 32.2977 320.1903 0018279 55.5157 304.7213 14.54807881214864
Epoch: 31. Mai 2026 • Age: 8 hours

Aktueller Status

Höhe 725.7 km
Geschwindigkeit 7.49 km/s
Subsatellitenpunkt -20.19°S, 12.2°W
Typ other

Most Searched